TJS-20

Last updated on Sun Apr 12 2026 00:02:57 GMT+0000 (Coordinated Universal Time)

1 66142U 25238A 26101.15253128 .00000019 00000+0 00000+0 0 9994 2 66142 5.6206 299.7962 0008600 107.3942 269.4586 1.00272645 1664
UTC large
Height (km)
Speed (km/s)
/
Latitude / Longitude
Inclination (degrees)
Orbital Period (minutes)
Azimuth
Elevation
Range (km)
Doppler Factor

Next 0 passes for location: London (51.5072 / 0.1276)

Sorry there are no passes over London.
TJS-20